Other Public Products
Issued by NWS Grand Forks, ND

Home | Current Version | Previous Version | Text Only | Print | Product List | Glossary Off
Versions: 1 2 3 4 5 6 7 8 9 10 11 12 13 14 15 16 17 18 19 20 21 22 23 24 25 26 27 28 29 30 31 32 33 34 35 36 37 38 39 40 41 42 43 44 45 46 47 48 49 50

000
FPUS83 KFGF 292131
OPUFGF
PRAIRIE TO PINES WEATHER ROUNDUP
NATIONAL WEATHER SERVICE EASTERN NORTH DAKOTA/GRAND FORKS ND
400 PM CDT WED OCT 29 2014

 **SATELLITE DATA USED TO AUGMENT SKY COVER AT AUTOMATED STATIONS**
 *****  WEATHER ACROSS EASTERN NORTH DAKOTA  *****

CITY           SKY/WX    TMP DP  RH WIND       PRES   REMARKS
GRAND FORKS    PTSUNNY   40  27  59 S9        30.03F
GRAND FORKS AF CLOUDY    41  28  59 S6        30.02F
GRAND CITY NWS   N/A     39 N/A N/A S7          N/A
BUXTON           N/A     40  29  64 SE6         N/A
DEVILS LAKE    CLOUDY    45  28  53 S13       29.93F
FARGO          PTSUNNY   42  29  59 S8        30.05F
WAHPETON ARPT  PTCLDY    41  28  60 S8        30.05F
$$

 *****  WEATHER ACROSS CENTRAL AND WESTERN NORTH DAKOTA  *****

CITY           SKY/WX    TMP DP  RH WIND       PRES   REMARKS
JAMESTOWN      CLOUDY    47  31  53 S13       29.97F
BISMARCK       LGT RAIN  50  36  58 S3        29.94F
MINOT          CLOUDY    45  31  58 S15       29.85F
MINOT AFB      CLOUDY    45  32  61 SW9       29.85F
GARRISON         N/A     45  32  60 SW8       29.89R
WILLISTON      PTSUNNY   44  36  73 SW9       29.87S
DICKINSON      CLOUDY    49  39  68 W10       29.89S
HETTINGER      CLOUDY    56  32  40 W9        29.93F
$$

 *****  OTHER OBSERVATIONS NORTHEAST NORTH DAKOTA  *****

CITY           SKY/WX    TMP DP  RH WIND       PRES   REMARKS
WALHALLA         N/A     39  28  65 S7        30.00F
LANGDON        CLOUDY    39  28  65 S13       29.96F
CAVALIER       FAIR      39  28  65 S8        30.01F
GRAFTON        FAIR      39  28  65 S10       30.02F
CANDO          CLOUDY    43  32  65 S14       29.94S
FORT TOTTEN      N/A     44  29  55 S9        29.95S
ROLLA          CLOUDY    41  30  65 S14       29.92S
RUGBY          FAIR      45  32  61 S12G21    29.90S
 ***** THE ABOVE OBSERVATIONS ARE NON NWS ARE NOT QUALITY
        CONTROLLED AND MAY MIS-REPORT RAIN FOR SNOW...
$$

 *****  OTHER OBSERVATIONS SOUTHEAST NORTH DAKOTA *****

CITY           SKY/WX    TMP DP  RH WIND       PRES   REMARKS
COOPERSTOWN    NOT AVBL
VALLEY CITY    FAIR      43  32  65 S10       30.00S
OAKES            N/A     46  32  57 S8        30.01S
GWINNER        CLEAR     46  30  53 S13       30.03S
BUFFALO        NOT AVBL
WYNDMERE         N/A     45  30  57 S7          N/A
 ***** THE ABOVE OBSERVATIONS ARE NON NWS ARE NOT QUALITY
       CONTROLLED AND MAY MIS-REPORT RAIN FOR SNOW...
$$

  *****  WEATHER ACROSS NORTHERN MINNESOTA  *****

CITY           SKY/WX    TMP DP  RH WIND       PRES   REMARKS
FLAG ISLAND    CLOUDY    37  34  87 W6        30.03S FOG
WARROAD        CLOUDY    37  34  87 SW7       30.04F
ROSEAU         CLOUDY    37  32  81 SW5       30.04F
HALLOCK        PTSUNNY   39  28  65 S7        30.03S
THF RVR FALLS  CLOUDY    37  28  70 S6        30.04F
HALSTAD          N/A     42  28  58 S8          N/A
FOSSTON        CLOUDY    36  30  80 S7        30.05F
BAUDETTE       CLOUDY    37  33  85 SW7       30.04F
WASKISH        CLOUDY    37  34  87 CALM      30.05S
CROOKSTON      MOSUNNY   39  28  65 SW10      30.05F
$$
  *****  WEATHER ACROSS CENTRAL AND WEST MINNESOTA  *****

CITY           SKY/WX    TMP DP  RH WIND       PRES   REMARKS
BEMIDJI        CLOUDY    35  30  83 SW6       30.05F
PARK RAPIDS    CLOUDY    37  30  75 VRB3      30.06F
WADENA         CLOUDY    36  30  80 S6        30.06F
DETROIT LAKES  MOSUNNY   37  30  75 SW6       30.06S
MOORHEAD       MOSUNNY   43  30  61 S6        30.06F
FERGUS FALLS   SUNNY     39  27  60 S8        30.08S
ELBOW LAKE     FAIR      39  31  72 S8        30.06F
MORRIS MN      SUNNY     41  32  70 S7        30.06F
STAPLES        CLOUDY    36  30  80 CALM      30.08S
WHEATON        MOSUNNY   39  28  65 S6        30.08S
$$
  *****  WEATHER ELSEWHERE ACROSS MINNESOTA  *****

CITY           SKY/WX    TMP DP  RH WIND       PRES   REMARKS
DULUTH         CLOUDY    41  32  70 W8        30.05S
INTRNTL FALLS  CLOUDY    38  35  89 W8        30.04S
ELY            CLOUDY    37  34  87 CALM      30.04R
CLOQUET        CLOUDY    39  32  75 W8        30.06F
BRAINERD       CLOUDY    37  31  78 W6        30.08F
HIBBING        CLOUDY    40  33  76 SW5       30.05S
ALEXANDRIA     MOSUNNY   38  29  70 S6        30.08F
SAINT CLOUD    CLOUDY    42  32  67 S7        30.09F
MINNEAPOLIS    CLOUDY    41  31  67 CALM      30.12F
$$

  *****  WEATHER ACROSS SOUTH DAKOTA  *****

CITY           SKY/WX    TMP DP  RH WIND       PRES   REMARKS
SIOUX FALLS    MOSUNNY   50  31  48 S10       30.07F
BROOKINGS      NOT AVBL
WATERTOWN      SUNNY     48  32  53 S10       30.04F
HURON          SUNNY     52  30  43 S6        30.02F
SISSETON         N/A     47  32  56 S6        30.04F
ABERDEEN       PTSUNNY   53  29  39 S12       30.02F
MITCHELL       SUNNY     55  32  41 S12       30.04F
PIERRE         MOSUNNY   60  26  27 S12       29.95F
MOBRIDGE       CLOUDY    54  29  38 S9        29.95R
RAPID CITY     MOSUNNY   61  28  28 N22       29.97R
$$

  *****  SOME WEATHER IN NEARBY STATES *****

CITY           SKY/WX    TMP DP  RH WIND       PRES   REMARKS
GLASGOW MT     MOSUNNY   60  34  37 NW21G28   29.90R
GREAT FALLS MT MOSUNNY   60  31  33 W25G33    30.04R
CHEYENNE WY    SUNNY     63  19  18 W23G35    30.11F
SCOTTSBLUFF NE SUNNY     71  20  14 NW15      29.99F
OMAHA NE       SUNNY     55  28  35 S3        30.13F
DES MOINES IA  SUNNY     55  33  43 VRB3      30.14F
DAVENPORT IA   SUNNY     51  29  42 NW10      30.13S
CHICAGO IL     PTSUNNY   48  32  53 W9        30.09R
EAU CLAIRE WI  CLOUDY    45  32  60 W9        30.10S
LA CROSSE WI   SUNNY     50  32  50 N5        30.11F
$$

  *****  SOME NATIONAL WEATHER *****

CITY           SKY/WX    TMP DP  RH WIND       PRES   REMARKS
LA GUARDIA NY  CLOUDY    63  41  44 NW14      29.87R
RALEIGH NC     PTSUNNY   75  56  51 SW8       29.91F
ATLANTA GA     PTSUNNY   61  55  82 NW13      30.03R
NEW ORLEANS LA MOSUNNY   80  63  55 NW7       30.00F
OKLAHOMA CITY  SUNNY     73  28  18 S9        30.15F
ALBUQUERQUE NM SUNNY     70  22  16 SW5       30.22F
SALT LAKE CITY MOSUNNY   63  22  20 NW6       30.26S
LOS ANGELES CA MOSUNNY   73  64  75 W5        29.98F
BOISE ID       CLOUDY    61  39  44 NW5       30.21F
SEATTLE WA     PTSUNNY   61  52  72 S7        30.14F
$$

*** WEATHER ACROSS MANITOBA...SASKATCHEWAN AND ONTARIO ***
                ***ONTARIO***

CITY           SKY/WX    TMP DP  RH WIND       PRES   REMARKS
GERALDTON      PTSUNNY   30  27  86 NW9       29.97  WCI  22
THUNDER BAY    CLOUDY    43  32  65 NW9       30.03R
SIOUX LOOKOUT  CLOUDY    36  32  87 NW3       30.02S
TORONTO        PTSUNNY   48  37  66 W16G24    29.89S
BIG TROUT LK   CLOUDY    28  23  80 NW9       30.00R WCI  20
PICKLE LAKE    FLURRIES  32  27  80 NW6       29.99S
DRYDEN         CLOUDY    36  32  87 W7        30.02S
KENORA         CLOUDY    37  32  81 W7        30.02S
$$
                *** MANITOBA***

CITY           SKY/WX    TMP DP  RH WIND       PRES   REMARKS
BRANDON        MOSUNNY   37  28  70 E10       29.94F
DAUPHIN        CLOUDY    34  30  86 SE6       29.97S
ISLAND LAKE    PTSUNNY   28  25  86 W6        30.04R WCI  22
PILOT MOUND      N/A     41  28  60 SE13G18     N/A
THE PAS        CLOUDY    32  27  80 NE2       30.03
THOMPSON       FLURRIES  27  21  80 W7        30.05R WCI  19
WINNIPEG       CLOUDY    37  28  70 S8        30.03F
LYNN LAKE      CLOUDY    30  21  69 N12G22    30.05R WCI  21
CHURCHILL      LGT SNOW  25  25 100 NW8       30.06R FOG     WCI  16
GILLAM         FLURRIES  25  19  80 NW9       30.04S WCI  15
$$
                ***SASKATCHEWAN***

CITY           SKY/WX    TMP DP  RH WIND       PRES   REMARKS
ESTEVAN        PTSUNNY   48  36  61 SW7       29.84R
KINDERSLEY     CLOUDY    30  28  93 NW13      29.99R WCI  20
LLOYDMINSTER   CLOUDY    34  30  86 N5        30.02R
PRINCE ALBERT  CLOUDY    34  28  80 NE12      30.02R
REGINA         MOSUNNY   48  34  57 NW7       29.86R
YORKTON        CLOUDY    34  32  93 E5        29.92R



USA.gov is the U.S. government's official web portal to all federal, state and local government web resources and services.